EW1722 Weather Reports


time (UTC)temp
C
wind
direction
speed
KPH
gust
KPH
rain 1hr
cm
rain 24hr
cm
rain mn
cm
humidity
%
barometer
mb
20260502121311 16 116 0.0 0.0 0.00 0.00 0.00 64
20260502111307 15 116 0.0 0.0 0.00 0.00 0.00 62
20260502101304 16 115 0.0 0.0 0.00 0.00 0.00 59
20260502091304 17 101 0.0 0.0 0.00 0.00 0.00 56
20260502071256 18 104 0.0 0.0 0.00 0.00 0.00 54
20260502061253 21 110 0.0 0.0 0.00 0.00 0.00 50
20260502051250 22 71 0.0 0.0 0.00 0.00 0.00 48
20260502041245 23 106 0.0 0.0 0.00 0.00 0.00 46
20260502031240 23 86 0.0 0.0 0.00 0.00 0.00 45
20260502021239 26 29 0.0 0.0 0.00 0.00 0.00 40
20260502011236 29 287 6.4 12.9 0.00 0.00 0.00 35
20260502001236 31 40 0.0 0.0 0.00 0.00 0.00 35
20260501231234 31 30 0.0 8.0 0.00 0.00 0.00 36
20260501221234 31 17 1.6 8.0 0.00 0.00 0.00 38
20260501211232 31 24 0.0 3.2 0.00 0.00 0.00 40
20260501201229 28 118 0.0 3.2 0.00 0.00 0.00 42
20260501191227 27 27 0.0 0.0 0.00 0.00 0.00 45
20260501181225 26 315 1.6 8.0 0.00 0.00 0.00 53
20260501171220 25 78 0.0 0.0 0.00 0.00 0.00 60
20260501161218 23 118 0.0 0.0 0.00 0.00 0.00 65
20260501151215 22 104 0.0 0.0 0.00 0.00 0.00 76